DW8947 Weather Reports


Display with metric or nautical units.
time (UTC)temp
F
wind
direction
speed
MPH
gust
MPH
rain 1hr
in
rain 24hr
in
rain mn
in
humidity
%
barometer
mb
20260904131204 54 116 0.0 0.0 0.00 0.01 0.00 91 1010.2
20260904130705 54 116 0.0 0.0 0.00 0.01 0.00 91 1010.2
20260904130204 54 116 0.0 2.0 0.00 0.01 0.00 91 1010.1
20260904125205 54 116 0.0 2.0 0.00 0.01 0.00 91 1010.1
20260904123205 54 116 0.0 2.0 0.00 0.01 0.00 91 1010.1
20260904122704 54 116 0.0 2.0 0.00 0.01 0.00 90 1010.1
20260904120704 54 116 0.0 2.0 0.00 0.01 0.00 91 1010.1
20260904114205 54 116 0.0 2.0 0.00 0.01 0.00 90 1009.7
20260904113704 54 116 0.0 2.0 0.00 0.01 0.00 90 1009.6
20260904113205 54 116 0.0 0.0 0.00 0.01 0.00 90 1009.6
20260904105704 54 116 0.0 2.0 0.00 0.03 0.00 90 1009.5
20260904104704 54 116 0.0 0.0 0.00 0.03 0.00 89 1009.6
20260904104204 54 116 0.0 0.0 0.00 0.03 0.00 89 1009.5
20260904103705 54 116 0.0 0.0 0.00 0.03 0.00 89 1009.4
20260904102704 54 116 0.0 0.0 0.00 0.03 0.00 89 1009.5
20260904102204 54 116 0.0 0.0 0.00 0.03 0.00 89 1009.5
20260904101204 55 116 0.0 0.0 0.00 0.03 0.00 88 1009.3
20260904100704 55 116 0.0 1.0 0.00 0.03 0.00 88 1009.3
20260904095704 55 116 0.0 2.0 0.00 0.03 0.00 88 1009.1
20260904094705 55 116 0.0 0.0 0.00 0.03 0.00 88 1009.2
20260904092204 55 89 0.0 1.0 0.00 0.03 0.00 86 1009.0
20260904091704 55 69 0.0 0.0 0.00 0.03 0.00 84 1008.9
20260904091204 55 69 0.0 0.0 0.00 0.03 0.00 84 1009.0
20260904090704 55 69 0.0 0.0 0.00 0.03 0.00 85 1009.1
20260904090204 55 69 0.0 0.0 0.00 0.03 0.00 84 1009.1
20260904085204 56 69 0.0 0.0 0.00 0.03 0.00 84 1009.2
20260904084204 56 69 0.0 0.0 0.00 0.03 0.00 85 1009.3
20260904083205 56 69 0.0 0.0 0.00 0.03 0.00 84 1009.4
20260904082204 56 69 0.0 0.0 0.00 0.03 0.00 84 1009.5
20260904080704 56 69 0.0 0.0 0.00 0.03 0.00 82 1009.5
20260904075704 56 69 0.0 0.0 0.00 0.03 0.00 83 1009.4
20260904074704 56 69 0.0 0.0 0.00 0.03 0.00 80 1009.4
20260904074204 56 69 0.0 0.0 0.00 0.03 0.00 80 1009.4
20260904073705 56 69 0.0 0.0 0.00 0.03 0.00 81 1009.3
20260904073205 56 69 0.0 0.0 0.00 0.03 0.00 81 1009.3
20260904070705 56 69 0.0 0.0 0.00 0.03 0.00 80 1009.1
20260904070204 56 69 0.0 0.0 0.00 0.03 0.00 80 1009.1
20260904064704 56 69 0.0 0.0 0.00 0.03 0.03 82 1009.2
20260904063204 56 69 0.0 0.0 0.00 0.03 0.03 80 1009.1
20260904062704 56 69 0.0 0.0 0.00 0.03 0.03 80 1009.1
20260904061204 57 69 0.0 0.0 0.00 0.03 0.03 81 1009.0
20260904060705 57 69 0.0 0.0 0.00 0.03 0.03 79 1008.9
20260904055204 57 69 0.0 0.0 0.00 0.03 0.03 80 1009.0
20260904053204 58 69 0.0 0.0 0.00 0.03 0.03 77 1009.0
20260904051704 58 69 0.0 0.0 0.00 0.03 0.03 75 1009.1
20260904051204 58 69 0.0 0.0 0.00 0.03 0.03 75 1009.1
20260904045704 59 69 0.0 0.0 0.00 0.03 0.03 75 1009.1
20260904044205 59 69 0.0 0.0 0.00 0.03 0.03 75 1009.1
20260904043705 59 69 0.0 0.0 0.00 0.03 0.03 75 1009.1
20260904043205 59 69 0.0 0.0 0.00 0.03 0.03 75 1009.0
20260904042704 59 69 0.0 0.0 0.00 0.03 0.03 76 1009.1
20260904042204 58 69 0.0 0.0 0.00 0.03 0.03 77 1009.2
20260904041704 58 69 0.0 0.0 0.00 0.03 0.03 77 1009.2
20260904040705 58 69 0.0 0.0 0.00 0.03 0.03 78 1009.1
20260904035704 58 69 0.0 0.0 0.00 0.03 0.03 78 1009.0
20260904035204 58 69 0.0 0.0 0.00 0.03 0.03 78 1009.0
20260904034704 58 69 0.0 0.0 0.00 0.03 0.03 77 1008.9
20260904034204 58 69 0.0 0.0 0.00 0.03 0.03 77 1008.8
20260904033204 58 69 0.0 0.0 0.00 0.03 0.03 78 1008.8
20260904032704 59 69 0.0 0.0 0.00 0.03 0.03 78 1008.7
20260904032204 59 69 0.0 0.0 0.00 0.03 0.03 79 1008.6
20260904031204 59 69 0.0 0.0 0.00 0.03 0.03 78 1008.6
20260904025704 59 69 0.0 0.0 0.00 0.03 0.03 77 1008.5
20260904024204 60 69 0.0 0.0 0.00 0.03 0.03 77 1008.5
20260904023704 60 69 0.0 0.0 0.00 0.03 0.03 79 1008.3
20260904023204 60 69 0.0 0.0 0.00 0.03 0.03 79 1008.3
20260904022204 60 69 0.0 0.0 0.00 0.03 0.03 77 1008.2
20260904021704 61 69 0.0 0.0 0.00 0.03 0.03 78 1008.2
20260904021204 61 69 0.0 0.0 0.00 0.03 0.03 77 1008.2
20260904020704 61 69 0.0 0.0 0.00 0.03 0.03 77 1008.2
20260904020204 61 69 0.0 0.0 0.00 0.03 0.03 76 1008.1
20260904015704 62 69 0.0 0.0 0.00 0.03 0.03 76 1008.0
20260904015204 62 69 0.0 0.0 0.00 0.03 0.03 76 1008.0
20260904014704 62 69 0.0 0.0 0.00 0.03 0.03 76 1008.1
20260904014204 62 69 0.0 0.0 0.00 0.03 0.03 74 1008.2
20260904012704 63 69 0.0 0.0 0.00 0.03 0.03 74 1008.1
20260904012204 63 69 0.0 0.0 0.00 0.03 0.03 72 1008.1
20260904011704 63 69 0.0 0.0 0.00 0.03 0.03 74 1008.1
20260904010704 63 69 0.0 2.0 0.00 0.03 0.03 73 1008.0
20260904005704 63 125 0.0 1.0 0.00 0.03 0.03 74 1008.0
20260904004204 63 125 0.0 2.0 0.00 0.03 0.03 72 1007.9
20260904003704 63 125 0.0 1.0 0.00 0.03 0.03 73 1007.9
20260904002704 64 125 0.0 2.0 0.00 0.03 0.03 72 1007.9
20260904001704 64 125 0.0 2.0 0.00 0.03 0.03 72 1007.9
20260904001204 64 125 0.0 2.0 0.00 0.03 0.03 73 1007.9
20260904000704 64 125 0.0 1.0 0.00 0.03 0.03 73 1007.9
20260903234704 64 125 0.0 2.0 0.00 0.03 0.03 75 1007.9
20260903234203 64 125 0.0 2.0 0.00 0.03 0.03 74 1007.9
20260903233204 64 125 0.0 2.0 0.00 0.03 0.03 76 1008.0
20260903232704 64 125 0.0 1.0 0.00 0.03 0.03 72 1008.0
20260903231204 63 128 0.0 2.0 0.00 0.04 0.03 73 1008.0
20260903230704 63 128 0.0 2.0 0.00 0.05 0.03 76 1008.0
20260903225704 63 14 0.0 2.0 0.00 0.07 0.03 73 1008.2
20260903225204 63 14 0.0 2.0 0.00 0.08 0.03 72 1008.1
20260903224204 63 34 0.0 2.0 0.00 0.10 0.03 75 1008.2
20260903223204 63 188 0.0 1.0 0.00 0.11 0.03 74 1008.2
20260903222204 63 186 0.0 0.0 0.00 0.12 0.03 75 1008.2
20260903215704 63 186 1.0 1.0 0.00 0.13 0.03 70 1008.3
20260903214204 64 11 0.0 2.0 0.00 0.14 0.03 72 1008.2
20260903213704 63 11 0.0 1.0 0.00 0.14 0.03 72 1008.1
20260903213204 63 20 0.0 1.0 0.00 0.14 0.03 72 1008.2
20260903211704 63 227 0.0 2.0 0.00 0.15 0.03 73 1008.1
20260903210704 63 213 0.0 2.0 0.00 0.15 0.03 75 1008.1
20260903210204 63 169 0.0 2.0 0.00 0.15 0.03 73 1008.1
20260903205704 63 158 0.0 2.0 0.00 0.15 0.03 74 1008.1
20260903204204 64 154 1.0 2.0 0.00 0.15 0.03 73 1008.0
20260903203205 65 201 1.0 2.0 0.00 0.15 0.03 70 1007.9
20260903202704 65 266 0.0 2.0 0.00 0.15 0.03 74 1007.8
20260903195704 63 222 0.0 2.0 0.00 0.15 0.03 75 1008.0
20260903195205 63 150 0.0 2.0 0.00 0.15 0.03 74 1008.0
20260903193204 63 203 0.0 2.0 0.00 0.17 0.03 76 1007.8
20260903192704 63 179 0.0 2.0 0.00 0.17 0.03 79 1007.8
20260903191704 62 308 1.0 2.0 0.00 0.17 0.03 80 1007.7
20260903191204 62 163 0.0 2.0 0.00 0.17 0.03 81 1007.8
20260903190704 61 173 0.0 2.0 0.00 0.17 0.03 83 1007.8
20260903190203 60 181 0.0 1.0 0.00 0.17 0.03 83 1007.8
20260903185704 60 181 0.0 2.0 0.00 0.17 0.03 82 1007.9
20260903184704 60 181 0.0 2.0 0.00 0.17 0.03 82 1008.0
20260903183704 60 337 0.0 2.0 0.00 0.17 0.03 82 1007.9
20260903182704 60 172 0.0 2.0 0.00 0.17 0.03 83 1007.7
20260903181704 60 308 0.0 1.0 0.00 0.17 0.03 83 1007.7
20260903180705 60 278 1.0 2.0 0.00 0.17 0.03 82 1007.6
20260903175704 60 223 0.0 2.0 0.00 0.17 0.03 84 1007.6
20260903175204 60 138 1.0 2.0 0.00 0.17 0.03 84 1007.6
20260903172204 58 126 1.0 2.0 0.00 0.17 0.03 89 1007.4
20260903171204 58 317 0.0 2.0 0.00 0.17 0.03 89 1007.4
20260903170704 58 345 0.0 2.0 0.00 0.17 0.03 89 1007.5
20260903165703 57 93 0.0 2.0 0.00 0.17 0.03 90 1007.4
20260903164704 57 136 0.0 2.0 0.00 0.17 0.03 90 1007.4
20260903164203 57 136 0.0 2.0 0.00 0.17 0.03 90 1007.4
20260903162704 56 127 0.0 2.0 0.00 0.17 0.03 93 1007.5
20260903160204 56 151 0.0 2.0 0.00 0.17 0.03 93 1007.4
20260903155204 56 151 0.0 2.0 0.00 0.17 0.03 94 1007.3
20260903154704 56 151 0.0 2.0 0.00 0.17 0.03 94 1007.3
20260903153704 56 151 0.0 2.0 0.00 0.17 0.03 94 1007.2
20260903152704 55 151 0.0 2.0 0.00 0.17 0.03 94 1007.2
20260903151704 55 151 0.0 2.0 0.01 0.17 0.03 94 1007.2
20260903151204 55 151 1.0 2.0 0.01 0.17 0.03 94 1007.2
20260903150704 55 151 0.0 2.0 0.01 0.17 0.03 94 1007.2
20260903144704 55 151 0.0 2.0 0.01 0.17 0.03 94 1007.1
20260903142704 55 151 0.0 2.0 0.01 0.17 0.03 94 1007.0
20260903141204 55 144 0.0 1.0 0.00 0.16 0.02 95 1006.8
20260903140704 55 144 0.0 2.0 0.00 0.16 0.02 95 1006.8
20260903140204 55 144 0.0 2.0 0.00 0.16 0.02 95 1006.8
20260903134704 55 144 0.0 2.0 0.00 0.16 0.02 95 1006.7
20260903134204 55 144 0.0 2.0 0.00 0.16 0.02 95 1006.7
20260903131704 54 144 0.0 2.0 0.00 0.16 0.02 95 1006.5